Location: *
(49.8044°N, 4.0558°E)
Time: 17:53:02
(UTC+00:00)

STARLINK-1269 - Pass Details

Date: 09 April 2020
Orbit: 549 x 550 km, 53.0° (Epoch: 25 May)

Event Time Altitude Azimuth Distance (km) Brightness Sun altitude
Rises 19:26:35 0° 290° (WNW) 2,731 9.5 -9.7°
Reaches altitude 10° 19:28:50 10° 292° (WNW) 1,836 7.9 -10.0°
Maximum altitude 19:33:01 78° 19° (NNE) 570 3.7 -10.6°
Enters shadow 19:36:20 16° 105° (ESE) 1,501 5.2 -11.1°
